| time (UTC) | temp C | wind direction | speed KPH | gust KPH | rain 1hr cm | rain 24hr cm | rain mn cm | humidity % | barometer mb |
| 20260507145147 | 12 | 336 | 6.4 | 16.1 | 0.00 | 0.00 | 0.00 | 52 | 1013.5 |
| 20260507144643 | 12 | 348 | 6.4 | 12.9 | 0.00 | 0.00 | 0.00 | 51 | 1013.7 |
| 20260507144141 | 12 | 356 | 11.3 | 16.1 | 0.00 | 0.00 | 0.00 | 49 | 1013.7 |
| 20260507143637 | 12 | 3 | 6.4 | 22.5 | 0.00 | 0.00 | 0.00 | 50 | 1013.7 |
| 20260507143135 | 11 | 261 | 6.4 | 20.9 | 0.00 | 0.00 | 0.00 | 49 | 1013.7 |
| 20260507142630 | 11 | 186 | 4.8 | 12.9 | 0.00 | 0.00 | 0.00 | 51 | 1013.9 |
| 20260507142127 | 11 | 243 | 9.7 | 16.1 | 0.00 | 0.00 | 0.00 | 53 | 1014.0 |
| 20260507141623 | 11 | 236 | 9.7 | 16.1 | 0.00 | 0.00 | 0.00 | 50 | 1014.1 |
| 20260507141120 | 11 | 239 | 14.5 | 20.9 | 0.00 | 0.00 | 0.00 | 52 | 1014.3 |
| 20260507140617 | 12 | 239 | 4.8 | 9.7 | 0.00 | 0.00 | 0.00 | 51 | 1014.2 |
| 20260507140114 | 11 | 250 | 4.8 | 11.3 | 0.00 | 0.00 | 0.00 | 52 | 1014.3 |
| 20260507135611 | 11 | 99 | 0.0 | 6.4 | 0.00 | 0.00 | 0.00 | 51 | 1014.4 |
| 20260507135109 | 11 | 13 | 6.4 | 11.3 | 0.00 | 0.00 | 0.00 | 52 | 1014.2 |
| 20260507134605 | 11 | 72 | 4.8 | 6.4 | 0.00 | 0.00 | 0.00 | 51 | 1014.4 |
| 20260507134101 | 11 | 314 | 4.8 | 6.4 | 0.00 | 0.00 | 0.00 | 53 | 1014.4 |
| 20260507133557 | 11 | 192 | 0.0 | 9.7 | 0.00 | 0.00 | 0.00 | 50 | 1014.5 |
| 20260507133055 | 11 | 32 | 3.2 | 4.8 | 0.00 | 0.00 | 0.00 | 51 | 1014.3 |
| 20260507132551 | 12 | 2 | 3.2 | 3.2 | 0.00 | 0.00 | 0.00 | 50 | 1014.4 |
| 20260507132048 | 12 | 8 | 3.2 | 3.2 | 0.00 | 0.00 | 0.00 | 51 | 1014.5 |
| 20260507131544 | 12 | 78 | 0.0 | 0.0 | 0.00 | 0.00 | 0.00 | 52 | 1014.5 |
| 20260507131042 | 11 | 76 | 0.0 | 0.0 | 0.00 | 0.00 | 0.00 | 52 | 1014.5 |
| 20260507130539 | 12 | 54 | 1.6 | 3.2 | 0.00 | 0.00 | 0.00 | 49 | 1014.6 |
| 20260507130037 | 12 | 62 | 0.0 | 0.0 | 0.00 | 0.00 | 0.00 | 50 | 1014.6 |
| 20260507125535 | 11 | 85 | 0.0 | 0.0 | 0.00 | 0.00 | 0.00 | 50 | 1014.4 |
| 20260507125032 | 12 | 69 | 1.6 | 3.2 | 0.00 | 0.00 | 0.00 | 51 | 1014.7 |
| 20260507124528 | 11 | 76 | 0.0 | 0.0 | 0.00 | 0.00 | 0.00 | 52 | 1014.7 |
| 20260507124026 | 10 | 125 | 3.2 | 3.2 | 0.00 | 0.00 | 0.00 | 55 | 1014.9 |
| 20260507123524 | 10 | 116 | 1.6 | 3.2 | 0.00 | 0.00 | 0.00 | 54 | 1014.8 |
| 20260507123021 | 10 | 155 | 0.0 | 0.0 | 0.00 | 0.00 | 0.00 | 57 | 1014.8 |
| 20260507122516 | 10 | 104 | 0.0 | 3.2 | 0.00 | 0.00 | 0.00 | 59 | 1014.8 |
| 20260507122012 | 10 | 104 | 3.2 | 3.2 | 0.00 | 0.00 | 0.00 | 59 | 1014.7 |
| 20260507121508 | 10 | 136 | 3.2 | 3.2 | 0.00 | 0.00 | 0.00 | 60 | 1014.6 |
| 20260507121004 | 10 | 81 | 0.0 | 4.8 | 0.00 | 0.00 | 0.00 | 61 | 1014.7 |
| 20260507120500 | 9 | 71 | 0.0 | 3.2 | 0.00 | 0.00 | 0.00 | 63 | 1014.7 |
| 20260507115957 | 9 | 122 | 0.0 | 0.0 | 0.00 | 0.00 | 0.00 | 63 | 1014.6 |
| 20260507115453 | 10 | 136 | 1.6 | 3.2 | 0.00 | 0.00 | 0.00 | 62 | 1014.7 |
| 20260507114949 | 8 | 87 | 0.0 | 1.6 | 0.00 | 0.00 | 0.00 | 65 | 1014.8 |
| 20260507114445 | 8 | 119 | 1.6 | 3.2 | 0.00 | 0.00 | 0.00 | 66 | 1014.5 |
| 20260507113943 | 7 | 119 | 1.6 | 3.2 | 0.00 | 0.00 | 0.00 | 72 | 1014.5 |
| 20260507113440 | 7 | 103 | 1.6 | 3.2 | 0.00 | 0.00 | 0.00 | 75 | 1014.7 |
| 20260507112937 | 7 | 100 | 1.6 | 3.2 | 0.00 | 0.00 | 0.00 | 78 | 1014.4 |
| 20260507112435 | 7 | 103 | 3.2 | 3.2 | 0.00 | 0.00 | 0.00 | 77 | 1014.2 |
| 20260507111931 | 7 | 101 | 0.0 | 0.0 | 0.00 | 0.00 | 0.00 | 77 | 1014.2 |
| 20260507111429 | 6 | 90 | 0.0 | 1.6 | 0.00 | 0.00 | 0.00 | 79 | 1014.1 |
| 20260507110925 | 5 | 106 | 0.0 | 3.2 | 0.00 | 0.00 | 0.00 | 83 | 1014.2 |
| 20260507110421 | 5 | 111 | 1.6 | 1.6 | 0.00 | 0.00 | 0.00 | 85 | 1014.2 |
| 20260507105918 | 5 | 109 | 1.6 | 1.6 | 0.00 | 0.00 | 0.00 | 84 | 1013.9 |
| 20260507105415 | 4 | 106 | 1.6 | 1.6 | 0.00 | 0.00 | 0.00 | 83 | 1014.0 |
| 20260507104911 | 4 | 114 | 1.6 | 1.6 | 0.00 | 0.00 | 0.00 | 84 | 1013.9 |
| 20260507104408 | 4 | 114 | 0.0 | 1.6 | 0.00 | 0.00 | 0.00 | 84 | 1014.1 |
| 20260507103904 | 3 | 110 | 3.2 | 3.2 | 0.00 | 0.00 | 0.00 | 85 | 1014.0 |
| 20260507103401 | 3 | 131 | 1.6 | 3.2 | 0.00 | 0.00 | 0.00 | 84 | 1013.7 |
| 20260507102857 | 3 | 132 | 1.6 | 3.2 | 0.00 | 0.00 | 0.00 | 85 | 1013.8 |
| 20260507102353 | 3 | 115 | 0.0 | 1.6 | 0.00 | 0.00 | 0.00 | 83 | 1013.7 |
| 20260507101850 | 3 | 108 | 4.8 | 4.8 | 0.00 | 0.00 | 0.00 | 84 | 1013.9 |
| 20260507101350 | 3 | 125 | 1.6 | 3.2 | 0.00 | 0.00 | 0.00 | 83 | 1013.9 |
| 20260507100847 | 3 | 131 | 1.6 | 1.6 | 0.00 | 0.00 | 0.00 | 83 | 1013.7 |
| 20260507100345 | 3 | 135 | 1.6 | 1.6 | 0.00 | 0.00 | 0.00 | 84 | 1013.8 |
| 20260507095843 | 3 | 144 | 1.6 | 1.6 | 0.00 | 0.00 | 0.00 | 82 | 1013.7 |
| 20260507095339 | 4 | 117 | 0.0 | 1.6 | 0.00 | 0.00 | 0.00 | 81 | 1013.6 |
| 20260507094837 | 3 | 145 | 3.2 | 3.2 | 0.00 | 0.00 | 0.00 | 82 | 1013.7 |
| 20260507094333 | 3 | 132 | 1.6 | 3.2 | 0.00 | 0.00 | 0.00 | 84 | 1013.5 |
| 20260507093830 | 5 | 133 | 3.2 | 3.2 | 0.00 | 0.00 | 0.00 | 78 | 1013.7 |
| 20260507093329 | 4 | 106 | 3.2 | 4.8 | 0.00 | 0.00 | 0.00 | 79 | 1013.6 |
| 20260507092826 | 5 | 89 | 0.0 | 0.0 | 0.00 | 0.00 | 0.00 | 75 | 1013.7 |
| 20260507092323 | 6 | 92 | 1.6 | 1.6 | 0.00 | 0.00 | 0.00 | 72 | 1013.7 |
| 20260507091819 | 6 | 107 | 0.0 | 3.2 | 0.00 | 0.00 | 0.00 | 71 | 1013.6 |
| 20260507091316 | 6 | 99 | 1.6 | 3.2 | 0.00 | 0.00 | 0.00 | 72 | 1013.6 |
| 20260507090811 | 6 | 99 | 0.0 | 0.0 | 0.00 | 0.00 | 0.00 | 72 | 1013.5 |
| 20260507090308 | 6 | 78 | 0.0 | 0.0 | 0.00 | 0.00 | 0.00 | 72 | 1013.6 |
| 20260507085805 | 6 | 71 | 0.0 | 0.0 | 0.00 | 0.00 | 0.00 | 71 | 1013.6 |
| 20260507085301 | 6 | 43 | 0.0 | 1.6 | 0.00 | 0.00 | 0.00 | 70 | 1013.3 |
| 20260507084759 | 6 | 63 | 0.0 | 1.6 | 0.00 | 0.00 | 0.00 | 69 | 1013.4 |
| 20260507084255 | 7 | 64 | 0.0 | 1.6 | 0.00 | 0.00 | 0.00 | 69 | 1013.4 |
| 20260507083753 | 7 | 34 | 0.0 | 1.6 | 0.00 | 0.00 | 0.00 | 67 | 1013.5 |
| 20260507083249 | 7 | 18 | 0.0 | 0.0 | 0.00 | 0.00 | 0.00 | 67 | 1013.5 |
| 20260507082745 | 8 | 347 | 3.2 | 4.8 | 0.00 | 0.00 | 0.00 | 64 | 1013.5 |
| 20260507082241 | 7 | 338 | 4.8 | 9.7 | 0.00 | 0.00 | 0.00 | 65 | 1013.6 |
| 20260507081738 | 8 | 282 | 4.8 | 6.4 | 0.00 | 0.00 | 0.00 | 66 | 1013.6 |
| 20260507081234 | 8 | 297 | 9.7 | 12.9 | 0.00 | 0.00 | 0.00 | 64 | 1013.6 |
| 20260507080731 | 8 | 304 | 8.0 | 9.7 | 0.00 | 0.00 | 0.00 | 64 | 1013.7 |
| 20260507080227 | 8 | 345 | 11.3 | 12.9 | 0.00 | 0.00 | 0.00 | 64 | 1013.6 |
| 20260507075722 | 8 | 318 | 6.4 | 9.7 | 0.00 | 0.00 | 0.00 | 65 | 1013.7 |
| 20260507075219 | 8 | 340 | 3.2 | 6.4 | 0.00 | 0.00 | 0.00 | 64 | 1013.5 |
| 20260507074715 | 8 | 343 | 6.4 | 12.9 | 0.00 | 0.00 | 0.00 | 61 | 1013.6 |
| 20260507074214 | 8 | 328 | 11.3 | 12.9 | 0.00 | 0.00 | 0.00 | 63 | 1013.8 |
| 20260507073710 | 8 | 308 | 9.7 | 9.7 | 0.00 | 0.00 | 0.00 | 64 | 1013.5 |
| 20260507073206 | 8 | 330 | 9.7 | 11.3 | 0.00 | 0.00 | 0.00 | 63 | 1013.6 |
| 20260507072704 | 8 | 321 | 4.8 | 6.4 | 0.00 | 0.00 | 0.00 | 62 | 1013.5 |
| 20260507072201 | 8 | 317 | 4.8 | 9.7 | 0.00 | 0.00 | 0.00 | 61 | 1013.5 |
| 20260507071659 | 8 | 331 | 6.4 | 9.7 | 0.00 | 0.00 | 0.00 | 65 | 1013.7 |
| 20260507071155 | 8 | 315 | 8.0 | 9.7 | 0.00 | 0.00 | 0.00 | 62 | 1013.7 |
| 20260507070652 | 8 | 318 | 9.7 | 12.9 | 0.00 | 0.00 | 0.00 | 58 | 1013.6 |
| 20260507070149 | 8 | 333 | 6.4 | 11.3 | 0.00 | 0.00 | 0.00 | 60 | 1013.8 |
| 20260507065645 | 8 | 341 | 4.8 | 6.4 | 0.00 | 0.00 | 0.00 | 59 | 1013.8 |
| 20260507065142 | 8 | 316 | 6.4 | 11.3 | 0.00 | 0.00 | 0.00 | 60 | 1013.8 |
| 20260507064640 | 8 | 318 | 9.7 | 16.1 | 0.00 | 0.00 | 0.00 | 63 | 1013.7 |
| 20260507064138 | 8 | 294 | 9.7 | 9.7 | 0.00 | 0.00 | 0.00 | 61 | 1013.8 |
| 20260507063636 | 8 | 320 | 11.3 | 12.9 | 0.00 | 0.00 | 0.00 | 63 | 1014.0 |
| 20260507063132 | 8 | 332 | 9.7 | 12.9 | 0.00 | 0.00 | 0.00 | 63 | 1013.9 |
| 20260507062629 | 8 | 343 | 11.3 | 16.1 | 0.00 | 0.00 | 0.00 | 61 | 1013.9 |
| 20260507062127 | 8 | 304 | 12.9 | 16.1 | 0.00 | 0.00 | 0.00 | 60 | 1014.0 |
| 20260507061624 | 8 | 338 | 11.3 | 16.1 | 0.00 | 0.00 | 0.00 | 60 | 1014.0 |
| 20260507061122 | 8 | 295 | 11.3 | 16.1 | 0.00 | 0.00 | 0.00 | 62 | 1013.8 |
| 20260507060620 | 8 | 333 | 9.7 | 14.5 | 0.00 | 0.00 | 0.00 | 61 | 1013.9 |
| 20260507060116 | 8 | 300 | 11.3 | 14.5 | 0.00 | 0.00 | 0.00 | 62 | 1013.7 |
| 20260507055612 | 8 | 303 | 12.9 | 14.5 | 0.00 | 0.00 | 0.00 | 62 | 1014.1 |
| 20260507055108 | 9 | 284 | 4.8 | 9.7 | 0.00 | 0.00 | 0.00 | 63 | 1013.8 |
| 20260507054604 | 9 | 348 | 9.7 | 11.3 | 0.00 | 0.00 | 0.00 | 60 | 1014.0 |
| 20260507054101 | 9 | 314 | 12.9 | 14.5 | 0.00 | 0.00 | 0.00 | 61 | 1014.1 |
| 20260507053559 | 9 | 328 | 9.7 | 11.3 | 0.00 | 0.00 | 0.00 | 61 | 1013.8 |
| 20260507053057 | 9 | 314 | 9.7 | 11.3 | 0.00 | 0.00 | 0.00 | 61 | 1013.9 |
| 20260507052555 | 9 | 335 | 8.0 | 11.3 | 0.00 | 0.00 | 0.00 | 62 | 1013.9 |
| 20260507052051 | 9 | 335 | 9.7 | 12.9 | 0.00 | 0.00 | 0.00 | 61 | 1014.2 |
| 20260507051549 | 9 | 316 | 8.0 | 12.9 | 0.00 | 0.00 | 0.00 | 61 | 1014.1 |
| 20260507051046 | 9 | 302 | 11.3 | 12.9 | 0.00 | 0.00 | 0.00 | 60 | 1014.1 |
| 20260507050542 | 9 | 323 | 9.7 | 12.9 | 0.00 | 0.00 | 0.00 | 63 | 1014.2 |
| 20260507050039 | 9 | 320 | 8.0 | 11.3 | 0.00 | 0.00 | 0.00 | 62 | 1014.1 |
| 20260507045535 | 9 | 311 | 9.7 | 12.9 | 0.00 | 0.00 | 0.00 | 60 | 1014.2 |
| 20260507045033 | 9 | 340 | 9.7 | 12.9 | 0.00 | 0.00 | 0.00 | 64 | 1014.1 |
| 20260507044529 | 9 | 339 | 8.0 | 12.9 | 0.00 | 0.00 | 0.00 | 63 | 1014.1 |
| 20260507044026 | 10 | 323 | 8.0 | 9.7 | 0.00 | 0.00 | 0.00 | 65 | 1014.1 |
| 20260507043522 | 9 | 328 | 14.5 | 16.1 | 0.00 | 0.00 | 0.00 | 65 | 1014.0 |
| 20260507043020 | 9 | 311 | 12.9 | 16.1 | 0.00 | 0.00 | 0.00 | 66 | 1014.1 |
| 20260507042515 | 10 | 320 | 9.7 | 12.9 | 0.00 | 0.00 | 0.00 | 69 | 1013.9 |
| 20260507042011 | 10 | 307 | 9.7 | 12.9 | 0.00 | 0.00 | 0.00 | 68 | 1014.1 |
| 20260507041508 | 10 | 32 | 4.8 | 11.3 | 0.00 | 0.00 | 0.00 | 70 | 1014.2 |
| 20260507041005 | 10 | 302 | 9.7 | 11.3 | 0.00 | 0.00 | 0.00 | 68 | 1014.1 |
| 20260507040501 | 10 | 318 | 4.8 | 6.4 | 0.00 | 0.00 | 0.00 | 71 | 1013.9 |
| 20260507035956 | 10 | 313 | 9.7 | 14.5 | 0.00 | 0.41 | 0.41 | 69 | 1014.1 |
| 20260507035454 | 10 | 308 | 6.4 | 11.3 | 0.00 | 0.41 | 0.41 | 71 | 1014.2 |
| 20260507034950 | 10 | 353 | 3.2 | 4.8 | 0.00 | 0.41 | 0.41 | 75 | 1013.7 |
| 20260507034447 | 10 | 349 | 6.4 | 11.3 | 0.00 | 0.41 | 0.41 | 72 | 1013.9 |
| 20260507033945 | 10 | 354 | 6.4 | 9.7 | 0.00 | 0.41 | 0.41 | 72 | 1013.8 |
| 20260507033443 | 10 | 354 | 6.4 | 9.7 | 0.00 | 0.41 | 0.41 | 74 | 1013.8 |
| 20260507032940 | 10 | 330 | 12.9 | 14.5 | 0.00 | 0.41 | 0.41 | 73 | 1013.6 |
| 20260507032437 | 10 | 0 | 8.0 | 9.7 | 0.00 | 0.41 | 0.41 | 75 | 1013.7 |
| 20260507031932 | 10 | 350 | 9.7 | 12.9 | 0.00 | 0.41 | 0.41 | 76 | 1013.8 |
| 20260507031429 | 10 | 338 | 16.1 | 17.7 | 0.00 | 0.41 | 0.41 | 76 | 1013.8 |
| 20260507030926 | 10 | 329 | 8.0 | 9.7 | 0.00 | 0.41 | 0.41 | 77 | 1014.0 |
| 20260507030423 | 10 | 350 | 12.9 | 14.5 | 0.00 | 0.41 | 0.41 | 76 | 1013.8 |
| 20260507025920 | 10 | 351 | 14.5 | 16.1 | 0.00 | 0.41 | 0.41 | 75 | 1014.1 |
| 20260507025418 | 10 | 9 | 9.7 | 14.5 | 0.00 | 0.41 | 0.41 | 78 | 1013.9 |
| 20260507024915 | 10 | 335 | 6.4 | 6.4 | 0.00 | 0.41 | 0.41 | 78 | 1013.6 |
| 20260507024412 | 10 | 334 | 11.3 | 14.5 | 0.00 | 0.41 | 0.41 | 77 | 1013.5 |
| 20260507023908 | 11 | 19 | 14.5 | 17.7 | 0.00 | 0.41 | 0.41 | 77 | 1013.3 |
| 20260507023405 | 11 | 4 | 4.8 | 9.7 | 0.00 | 0.41 | 0.41 | 77 | 1013.3 |
| 20260507022902 | 10 | 319 | 6.4 | 9.7 | 0.00 | 0.41 | 0.41 | 78 | 1013.3 |
| 20260507022359 | 10 | 3 | 3.2 | 4.8 | 0.00 | 0.41 | 0.41 | 79 | 1013.0 |
| 20260507021855 | 10 | 14 | 8.0 | 12.9 | 0.00 | 0.41 | 0.41 | 77 | 1012.8 |
| 20260507021350 | 11 | 334 | 6.4 | 6.4 | 0.00 | 0.41 | 0.41 | 80 | 1012.9 |
| 20260507020848 | 11 | 331 | 6.4 | 6.4 | 0.00 | 0.41 | 0.41 | 79 | 1013.0 |
| 20260507020345 | 11 | 326 | 6.4 | 9.7 | 0.00 | 0.41 | 0.41 | 80 | 1013.0 |
| 20260507015842 | 11 | 4 | 8.0 | 12.9 | 0.00 | 0.41 | 0.41 | 80 | 1012.6 |
| 20260507015340 | 11 | 355 | 6.4 | 12.9 | 0.00 | 0.41 | 0.41 | 80 | 1013.0 |
| 20260507014837 | 11 | 36 | 3.2 | 9.7 | 0.00 | 0.41 | 0.41 | 79 | 1013.0 |
| 20260507014333 | 11 | 8 | 16.1 | 17.7 | 0.00 | 0.41 | 0.41 | 79 | 1013.1 |
| 20260507013829 | 11 | 23 | 1.6 | 3.2 | 0.00 | 0.41 | 0.41 | 83 | 1013.1 |
| 20260507013326 | 11 | 347 | 6.4 | 6.4 | 0.00 | 0.41 | 0.41 | 82 | 1013.1 |
| 20260507012824 | 11 | 336 | 6.4 | 6.4 | 0.00 | 0.41 | 0.41 | 80 | 1013.2 |
| 20260507012320 | 11 | 300 | 4.8 | 11.3 | 0.00 | 0.41 | 0.41 | 79 | 1013.5 |
| 20260507011817 | 11 | 330 | 8.0 | 11.3 | 0.00 | 0.41 | 0.41 | 80 | 1013.6 |
| 20260507011314 | 11 | 30 | 1.6 | 3.2 | 0.00 | 0.41 | 0.41 | 79 | 1013.4 |
| 20260507010814 | 11 | 9 | 3.2 | 3.2 | 0.00 | 0.41 | 0.41 | 80 | 1013.4 |
| 20260507010309 | 11 | 113 | 0.0 | 1.6 | 0.00 | 0.41 | 0.41 | 79 | 1013.3 |
| 20260507005807 | 11 | 89 | 0.0 | 6.4 | 0.00 | 0.41 | 0.41 | 79 | 1013.4 |
| 20260507005305 | 11 | 22 | 4.8 | 6.4 | 0.00 | 0.41 | 0.41 | 79 | 1013.3 |
| 20260507004800 | 11 | 238 | 16.1 | 16.1 | 0.00 | 0.41 | 0.41 | 79 | 1013.6 |
| 20260507004258 | 11 | 55 | 3.2 | 3.2 | 0.00 | 0.41 | 0.41 | 79 | 1013.6 |
| 20260507003754 | 11 | 81 | 0.0 | 3.2 | 0.00 | 0.41 | 0.41 | 78 | 1013.5 |
| 20260507003249 | 11 | 13 | 6.4 | 14.5 | 0.00 | 0.41 | 0.41 | 79 | 1013.1 |
| 20260507002745 | 11 | 100 | 0.0 | 3.2 | 0.00 | 0.41 | 0.41 | 79 | 1012.9 |
| 20260507002241 | 11 | 50 | 11.3 | 16.1 | 0.00 | 0.41 | 0.41 | 78 | 1013.3 |
| 20260507001738 | 11 | 239 | 6.4 | 6.4 | 0.00 | 0.41 | 0.41 | 80 | 1013.3 |
| 20260507001236 | 11 | 268 | 8.0 | 11.3 | 0.00 | 0.41 | 0.41 | 80 | 1013.2 |
| 20260507000732 | 11 | 292 | 6.4 | 9.7 | 0.00 | 0.41 | 0.41 | 80 | 1013.3 |
| 20260507000228 | 11 | 226 | 0.0 | 3.2 | 0.00 | 0.41 | 0.41 | 81 | 1013.0 |
| 20260506235725 | 11 | 310 | 4.8 | 6.4 | 0.00 | 0.41 | 0.41 | 82 | 1012.8 |
| 20260506235220 | 11 | 11 | 3.2 | 6.4 | 0.00 | 0.41 | 0.41 | 82 | 1012.8 |
| 20260506234717 | 11 | 355 | 3.2 | 11.3 | 0.00 | 0.41 | 0.41 | 83 | 1012.6 |
| 20260506234215 | 11 | 312 | 8.0 | 11.3 | 0.00 | 0.41 | 0.41 | 84 | 1012.6 |
| 20260506233712 | 11 | 313 | 9.7 | 22.5 | 0.00 | 0.41 | 0.41 | 84 | 1012.6 |
| 20260506233208 | 11 | 9 | 8.0 | 14.5 | 0.00 | 0.41 | 0.41 | 85 | 1012.3 |
| 20260506232705 | 11 | 309 | 11.3 | 17.7 | 0.00 | 0.41 | 0.41 | 85 | 1012.2 |
| 20260506232200 | 11 | 321 | 11.3 | 17.7 | 0.00 | 0.41 | 0.41 | 84 | 1012.1 |
| 20260506231658 | 11 | 292 | 14.5 | 20.9 | 0.00 | 0.41 | 0.41 | 85 | 1011.9 |
| 20260506231156 | 11 | 280 | 14.5 | 22.5 | 0.00 | 0.41 | 0.41 | 85 | 1011.8 |
| 20260506230652 | 11 | 336 | 17.7 | 20.9 | 0.00 | 0.41 | 0.41 | 85 | 1011.9 |
| 20260506230149 | 11 | 325 | 17.7 | 22.5 | 0.00 | 0.41 | 0.41 | 85 | 1011.6 |
| 20260506225646 | 11 | 331 | 9.7 | 16.1 | 0.00 | 0.41 | 0.41 | 86 | 1011.8 |
| 20260506225143 | 12 | 327 | 11.3 | 16.1 | 0.00 | 0.41 | 0.41 | 85 | 1011.7 |
| 20260506224639 | 12 | 318 | 3.2 | 22.5 | 0.00 | 0.41 | 0.41 | 84 | 1011.8 |
| 20260506224136 | 12 | 332 | 19.3 | 25.7 | 0.00 | 0.41 | 0.41 | 85 | 1011.8 |
| 20260506223632 | 12 | 347 | 17.7 | 27.4 | 0.00 | 0.41 | 0.41 | 85 | 1011.6 |
| 20260506223128 | 12 | 289 | 12.9 | 17.7 | 0.00 | 0.41 | 0.41 | 86 | 1012.0 |
| 20260506222625 | 12 | 304 | 6.4 | 9.7 | 0.00 | 0.41 | 0.41 | 85 | 1011.9 |
| 20260506222121 | 12 | 345 | 6.4 | 11.3 | 0.00 | 0.41 | 0.41 | 84 | 1011.8 |
| 20260506221619 | 12 | 357 | 8.0 | 12.9 | 0.00 | 0.41 | 0.41 | 84 | 1011.5 |
| 20260506221117 | 12 | 35 | 6.4 | 11.3 | 0.00 | 0.41 | 0.41 | 85 | 1011.6 |
| 20260506220613 | 12 | 276 | 4.8 | 9.7 | 0.00 | 0.41 | 0.41 | 86 | 1011.6 |
| 20260506220109 | 12 | 337 | 9.7 | 20.9 | 0.00 | 0.41 | 0.41 | 86 | 1011.3 |
| 20260506215606 | 12 | 303 | 3.2 | 12.9 | 0.00 | 0.41 | 0.41 | 86 | 1011.4 |
| 20260506215101 | 12 | 71 | 0.0 | 1.6 | 0.00 | 0.41 | 0.41 | 86 | 1011.2 |
| 20260506214558 | 12 | 32 | 12.9 | 22.5 | 0.00 | 0.41 | 0.41 | 86 | 1011.1 |
| 20260506214055 | 12 | 96 | 6.4 | 9.7 | 0.00 | 0.41 | 0.41 | 86 | 1011.1 |
| 20260506213553 | 12 | 94 | 1.6 | 4.8 | 0.00 | 0.41 | 0.41 | 86 | 1011.2 |
| 20260506213050 | 12 | 141 | 6.4 | 12.9 | 0.00 | 0.41 | 0.41 | 86 | 1010.9 |
| 20260506212547 | 12 | 88 | 6.4 | 12.9 | 0.00 | 0.41 | 0.41 | 87 | 1010.7 |
| 20260506212042 | 12 | 185 | 6.4 | 12.9 | 0.00 | 0.41 | 0.41 | 87 | 1010.9 |
| 20260506211538 | 12 | 172 | 3.2 | 4.8 | 0.00 | 0.41 | 0.41 | 89 | 1010.9 |
| 20260506211036 | 12 | 50 | 4.8 | 6.4 | 0.00 | 0.41 | 0.41 | 88 | 1010.8 |
| 20260506210532 | 12 | 177 | 9.7 | 16.1 | 0.00 | 0.41 | 0.41 | 88 | 1010.8 |
| 20260506210029 | 12 | 58 | 8.0 | 11.3 | 0.00 | 0.41 | 0.41 | 88 | 1010.9 |
| 20260506205526 | 12 | 255 | 8.0 | 12.9 | 0.00 | 0.41 | 0.41 | 88 | 1010.6 |
| 20260506205021 | 12 | 14 | 11.3 | 12.9 | 0.00 | 0.41 | 0.41 | 89 | 1010.5 |
| 20260506204519 | 12 | 59 | 0.0 | 20.9 | 0.00 | 0.41 | 0.41 | 87 | 1010.3 |
| 20260506204016 | 13 | 309 | 6.4 | 14.5 | 0.00 | 0.41 | 0.41 | 87 | 1010.6 |
| 20260506203514 | 13 | 19 | 6.4 | 14.5 | 0.00 | 0.41 | 0.41 | 86 | 1010.5 |
| 20260506203010 | 13 | 253 | 3.2 | 4.8 | 0.00 | 0.41 | 0.41 | 87 | 1010.4 |
| 20260506202508 | 13 | 153 | 8.0 | 14.5 | 0.00 | 0.41 | 0.41 | 86 | 1010.2 |
| 20260506202003 | 13 | 226 | 6.4 | 12.9 | 0.00 | 0.41 | 0.41 | 87 | 1010.3 |
| 20260506201502 | 13 | 27 | 3.2 | 4.8 | 0.00 | 0.41 | 0.41 | 88 | 1010.3 |
| 20260506200958 | 13 | 276 | 6.4 | 16.1 | 0.00 | 0.41 | 0.41 | 87 | 1010.2 |
| 20260506200454 | 13 | 26 | 6.4 | 16.1 | 0.00 | 0.41 | 0.41 | 88 | 1010.3 |
| 20260506195950 | 13 | 227 | 9.7 | 17.7 | 0.00 | 0.41 | 0.41 | 87 | 1010.2 |
| 20260506195448 | 13 | 2 | 6.4 | 24.1 | 0.00 | 0.41 | 0.41 | 89 | 1010.4 |
| 20260506194944 | 13 | 314 | 20.9 | 24.1 | 0.00 | 0.41 | 0.41 | 89 | 1010.2 |
| 20260506194442 | 13 | 204 | 3.2 | 24.1 | 0.00 | 0.41 | 0.41 | 89 | 1010.0 |
| 20260506193938 | 13 | 290 | 17.7 | 20.9 | 0.00 | 0.41 | 0.41 | 90 | 1010.1 |
| 20260506193436 | 13 | 278 | 12.9 | 22.5 | 0.00 | 0.41 | 0.41 | 90 | 1010.2 |
| 20260506192932 | 13 | 325 | 12.9 | 20.9 | 0.00 | 0.41 | 0.41 | 91 | 1010.0 |
| 20260506192429 | 13 | 286 | 16.1 | 25.7 | 0.00 | 0.41 | 0.41 | 91 | 1009.9 |
| 20260506191926 | 14 | 276 | 20.9 | 30.6 | 0.00 | 0.41 | 0.41 | 89 | 1010.1 |
| 20260506191422 | 15 | 304 | 19.3 | 33.8 | 0.00 | 0.41 | 0.41 | 87 | 1009.5 |
| 20260506190919 | 15 | 327 | 8.0 | 12.9 | 0.00 | 0.41 | 0.41 | 86 | 1009.5 |
| 20260506190416 | 15 | 284 | 9.7 | 17.7 | 0.00 | 0.41 | 0.41 | 86 | 1009.5 |
| 20260506185913 | 15 | 302 | 11.3 | 20.9 | 0.00 | 0.41 | 0.41 | 85 | 1009.3 |
| 20260506185410 | 15 | 242 | 6.4 | 14.5 | 0.00 | 0.41 | 0.41 | 85 | 1009.4 |
| 20260506184907 | 15 | 234 | 11.3 | 16.1 | 0.00 | 0.41 | 0.41 | 85 | 1009.4 |
| 20260506184404 | 15 | 259 | 8.0 | 22.5 | 0.00 | 0.41 | 0.41 | 85 | 1009.3 |
| 20260506183901 | 15 | 148 | 3.2 | 11.3 | 0.00 | 0.41 | 0.41 | 86 | 1009.2 |
| 20260506183356 | 15 | 236 | 4.8 | 11.3 | 0.00 | 0.41 | 0.41 | 86 | 1009.2 |
| 20260506182854 | 15 | 320 | 6.4 | 9.7 | 0.00 | 0.41 | 0.41 | 86 | 1009.1 |
| 20260506182351 | 15 | 255 | 4.8 | 11.3 | 0.00 | 0.41 | 0.41 | 90 | 1009.1 |
| 20260506181848 | 15 | 246 | 6.4 | 12.9 | 0.00 | 0.41 | 0.41 | 89 | 1008.8 |
| 20260506181346 | 15 | 69 | 6.4 | 9.7 | 0.00 | 0.41 | 0.41 | 89 | 1009.0 |
| 20260506180843 | 15 | 5 | 9.7 | 12.9 | 0.00 | 0.41 | 0.41 | 88 | 1009.1 |
| 20260506180339 | 15 | 207 | 6.4 | 14.5 | 0.00 | 0.41 | 0.41 | 89 | 1009.3 |
| 20260506175835 | 15 | 337 | 12.9 | 22.5 | 0.00 | 0.41 | 0.41 | 89 | 1009.1 |
| 20260506175332 | 15 | 49 | 4.8 | 9.7 | 0.00 | 0.41 | 0.41 | 90 | 1009.2 |
| 20260506174829 | 15 | 284 | 14.5 | 22.5 | 0.00 | 0.41 | 0.41 | 91 | 1009.2 |
| 20260506174327 | 15 | 296 | 14.5 | 17.7 | 0.00 | 0.41 | 0.41 | 91 | 1009.3 |
| 20260506173824 | 15 | 311 | 27.4 | 33.8 | 0.00 | 0.41 | 0.41 | 94 | 1009.0 |
| 20260506173321 | 15 | 252 | 11.3 | 12.9 | 0.00 | 0.41 | 0.41 | 97 | 1008.8 |
| 20260506172818 | 15 | 324 | 3.2 | 6.4 | 0.00 | 0.41 | 0.41 | 97 | 1008.6 |
| 20260506172314 | 15 | 309 | 3.2 | 6.4 | 0.00 | 0.41 | 0.41 | 98 | 1008.6 |
| 20260506171812 | 15 | 141 | 3.2 | 4.8 | 0.00 | 0.41 | 0.41 | 98 | 1008.6 |
| 20260506171309 | 15 | 84 | 1.6 | 4.8 | 0.00 | 0.41 | 0.41 | 99 | 1008.7 |
| 20260506170807 | 15 | 147 | 0.0 | 4.8 | 0.00 | 0.41 | 0.41 | 98 | 1008.4 |
| 20260506170302 | 15 | 72 | 1.6 | 4.8 | 0.00 | 0.41 | 0.41 | 98 | 1008.6 |
| 20260506165801 | 15 | 106 | 0.0 | 4.8 | 0.00 | 0.41 | 0.41 | 98 | 1008.6 |
| 20260506165258 | 15 | 169 | 6.4 | 9.7 | 0.00 | 0.41 | 0.41 | 98 | 1008.6 |
| 20260506164755 | 15 | 197 | 8.0 | 11.3 | 0.00 | 0.41 | 0.41 | 97 | 1008.5 |
| 20260506164252 | 15 | 73 | 3.2 | 11.3 | 0.00 | 0.41 | 0.41 | 97 | 1008.6 |
| 20260506163749 | 15 | 218 | 8.0 | 11.3 | 0.00 | 0.41 | 0.41 | 97 | 1008.6 |
| 20260506163243 | 15 | 157 | 11.3 | 17.7 | 0.00 | 0.41 | 0.41 | 97 | 1008.3 |
| 20260506162740 | 15 | 186 | 8.0 | 12.9 | 0.00 | 0.41 | 0.41 | 98 | 1008.3 |
| 20260506162238 | 15 | 316 | 3.2 | 11.3 | 0.00 | 0.41 | 0.41 | 98 | 1008.4 |
| 20260506161735 | 15 | 54 | 1.6 | 6.4 | 0.00 | 0.41 | 0.41 | 98 | 1008.7 |
| 20260506161232 | 15 | 251 | 4.8 | 6.4 | 0.00 | 0.41 | 0.41 | 98 | 1008.4 |
| 20260506160730 | 15 | 127 | 9.7 | 11.3 | 0.00 | 0.41 | 0.41 | 98 | 1008.7 |
| 20260506160226 | 15 | 23 | 1.6 | 4.8 | 0.00 | 0.41 | 0.41 | 98 | 1008.5 |
| 20260506155725 | 15 | 261 | 1.6 | 6.4 | 0.18 | 0.41 | 0.41 | 98 | 1008.6 |
| 20260506155221 | 15 | 268 | 4.8 | 6.4 | 0.18 | 0.41 | 0.41 | 97 | 1008.5 |
| 20260506153323 | 15 | 40 | 3.2 | 11.3 | 0.00 | 0.38 | 0.38 | 93 | 1008.4 |
| 20260506152820 | 15 | 252 | 3.2 | 9.7 | 0.00 | 0.38 | 0.38 | 92 | 1008.5 |
| 20260506152317 | 15 | 251 | 3.2 | 12.9 | 0.00 | 0.38 | 0.38 | 92 | 1008.2 |
| 20260506151816 | 15 | 286 | 3.2 | 6.4 | 0.00 | 0.38 | 0.38 | 92 | 1008.3 |
| 20260506151312 | 15 | 325 | 4.8 | 4.8 | 0.00 | 0.38 | 0.38 | 93 | 1008.2 |
| 20260506150809 | 15 | 219 | 1.6 | 9.7 | 0.00 | 0.38 | 0.38 | 93 | 1008.0 |
| 20260506150306 | 15 | 140 | 4.8 | 9.7 | 0.00 | 0.38 | 0.38 | 93 | 1008.1 |
| 20260506145803 | 15 | 231 | 3.2 | 3.2 | 0.00 | 0.38 | 0.38 | 94 | 1008.0 |